User: anonymous   Login
Location: Castro Valley
(37.6940°N, 122.0850°W)
Time: 06:06:53
(UTC-08:00)
Language:

PANSAT - Orbit

View from above orbital plane
View from above orbital plane
View from above satellite
View from above satellite

Ground track
Ground track

The orbit data is extracted from the following two-line orbital elements,

1 25520U 98064B   17324.53812815  .00001238  00000-0  35434-4 0  9998
2 25520  28.4591 359.2927 0004937 298.1854  61.8243 15.28628943 58232
Epoch (UTC): 20 November 2017 12:54:54
Eccentricity: 0.0004937
inclination: 28.4591°
perigee height: 476 km
apogee height: 483 km
right ascension of ascending node: 359.2927°
argument of perigee: 298.1854°
revolutions per day: 15.28628943
mean anomaly at epoch: 61.8243°
orbit number at epoch: 5823

The dashed part of the orbit path shows where the satellite is in the earth's shadow,  

DLR